Regional Weather Roundup
Issued by NWS

Home | Current Version | Previous Version | Graphics & Text | Print | Product List | Glossary On
Versions: 1 2 3 4 5 6 7 8 9 10 11 12 13 14 15 16 17 18 19 20 21 22 23 24 25 26 27 28 29 30 31 32 33 34 35 36 37 38 39 40 41 42 43 44 45 46 47 48 49 50
000
ASUS43 KLOT 191910
RWRIL

ILLINOIS REGIONAL WEATHER ROUNDUP
NATIONAL WEATHER SERVICE CHICAGO/ROMEOVILLE IL
200 PM CDT SAT APR 19 2014

NOTE: "FAIR" INDICATES FEW OR NO CLOUDS BELOW 12,000 FEET WITH NO
SIGNIFICANT WEATHER AND/OR OBSTRUCTIONS TO VISIBILITY.

* THESE STATIONS ARE NOT UNDER NWS QUALITY CONTROL. THEY ALSO MAY NOT
  REPORT WEATHER SUCH AS PRECIPITATION OR FOG.

ILZ001-002-007-009-015-016-024-192000-
NORTHWEST ILLINOIS

CITY           SKY/WX    TMP DP  RH WIND       PRES   REMARKS
MOLINE         SUNNY     72  33  24 S12G20    30.22F
STERLING*      SUNNY     68  36  30 S10       30.25F
SAVANNA*       MOSUNNY   70  31  24 SE13G20   30.24F
$$

ILZ003-004-008-010-011-017-018-192000-
NORTH CENTRAL ILLINOIS

CITY           SKY/WX    TMP DP  RH WIND       PRES   REMARKS
ROCKFORD       PTSUNNY   65  35  33 SE14      30.29F
FREEPORT*      SUNNY     65  34  31 S14       30.29F
ROCHELLE*      MOSUNNY   67  33  28 S13G21    30.28F
DE KALB*       PTSUNNY   63  34  34 SE12G17   30.30F
PERU*          MOSUNNY   67  35  29 S8G16     30.28F
$$

ILZ005-006-012>014-019>023-192000-
NORTHEAST ILLINOIS

CITY           SKY/WX    TMP DP  RH WIND       PRES   REMARKS
CHICAGO-OHARE  PTSUNNY   60  35  39 E12       30.31F
CHICAGO-MIDWAY PTSUNNY   60  40  47 E10       30.31F
AURORA         MOSUNNY   66  36  32 SE13      30.29F
LANSING*       MOSUNNY   64  34  32 SE9       30.31F
WAUKEGAN       PTSUNNY   49  36  61 SE8       30.33F
DUPAGE AIRPORT PTSUNNY   65  35  33 E6        30.29F
KANKAKEE*      SUNNY     66  38  35 E9        30.30F
WHEELING       PTSUNNY   57  38  48 E7        30.33F
MORRIS*        MOSUNNY   67  27  22 E14       30.28F
ROMEOVILLE*    MOSUNNY   66  33  29 SE9G16    30.29F
NORTHERLY ISL    N/A     48  39  71 NE7         N/A
$$

LMZ740>746-192000-
SOUTHERN LAKE MICHIGAN

STATION/POSITION SKY/WX   TEMP    WIND        PRES    VSBY  WAVE
                          AIR SEA DIR/SP/G                  HT/PER
                          (F)     (DEG/KT/KT) (MB)    (MI)  (FT/S)
WAUKEGAN HARBOR            40      80/  2/  3 1028.8S
HARRISON CRIB              42      30/  4/  5   N/A
BURNHAM HARBOR             48      30/  6/  7   N/A
CALUMET HARBOR             47      20/  6/  9 1027.5F
MICHIGAN CITY              59      90/  8/ 13   N/A
$$

ILZ025>027-034>036-040-047-049-050-058-095>099-192000-
WEST-CENTRAL ILLINOIS

CITY           SKY/WX    TMP DP  RH WIND       PRES   REMARKS
QUINCY         SUNNY     73  43  33 S12G22    30.21F
GALESBURG*     SUNNY     70  41  34 SE12      30.23F
MACOMB*        SUNNY     72  38  28 SE15      30.25F
JACKSONVILLE*  SUNNY     72  39  29 SE6       30.24F
PITTSFIELD*    SUNNY     73  40  30 S6        30.24F
$$

ILZ028>032-037-038-041>044-048-051>054-059>061-192000-
CENTRAL ILLINOIS

CITY           SKY/WX    TMP DP  RH WIND       PRES   REMARKS
PONTIAC        SUNNY     70  32  24 SE10G16   30.28F
BLOOMINGTON    SUNNY     69  31  24 E8        30.28F
DECATUR        SUNNY     71  33  24 VRB3      30.26F
PEORIA         MOSUNNY   71  34  25 SE12      30.26F
LACON*         MOSUNNY   70  35  27 SE9G18    30.25F
LINCOLN*       SUNNY     73  34  24 CALM      30.24F
SPRINGFIELD    SUNNY     71  37  28 SE8       30.26F
TAYLORVILLE    SUNNY     70  41  35 E7        30.25F
$$

ILZ033-039-045-046-055>057-062-063-192000-
EAST-CENTRAL ILLINOIS

CITY           SKY/WX    TMP DP  RH WIND       PRES   REMARKS
CHAMPAIGN      SUNNY     71  33  24 E12       30.27F
RANTOUL*       SUNNY     71  32  23 CALM      30.29F
MATTOON        SUNNY     69  34  27 MISG      30.26F
PARIS*         SUNNY     70  38  30 NE5       30.27F
$$

ILZ079-100>102-192000-
SOUTHWEST ILLINOIS

CITY           SKY/WX    TMP DP  RH WIND       PRES   REMARKS
ALTON          SUNNY     72  39  30 SE9       30.24F
BELLEVILLE     SUNNY     72  47  40 E7        30.23F
CAHOKIA*       SUNNY     73  44  35 SE3       30.23F
SPARTA*        SUNNY     70  41  35 SE5       30.24F
$$

ILZ064>066-069>071-074>076-080>082-084>086-088>090-092>094-192000-
SOUTH-CENTRAL ILLINOIS

CITY           SKY/WX    TMP DP  RH WIND       PRES   REMARKS
CARBONDALE     SUNNY     73  43  33 VRB5      30.22F
CAIRO*         SUNNY     77  40  26 N7        30.21F
MT. VERNON     SUNNY     72  43  35 E3        30.25F
CENTRALIA*       N/A     73  41  32 CALM      30.23F
SALEM*         SUNNY     72  45  37 SE7       30.25F
METROPOLIS*    SUNNY     74  32  21 CALM      30.20F
$$

ILZ067-068-072-073-078-083-087-091-192000-
SOUTHEAST ILLINOIS

CITY           SKY/WX    TMP DP  RH WIND       PRES   REMARKS
FAIRFIELD*     SUNNY     72  43  35 CALM      30.24F
HARRISBURG*    SUNNY     73  42  33 E8        30.24F
ROBINSON*      SUNNY     73  41  31 NE8       30.26F
CARMI*         SUNNY     73  44  36 NE3       30.23F
$$

ABBREVIATIONS USED IN REMARKS
   TC - TEMPERATURE IN CELSIUS
  WCI - WIND CHILL INDEX
   HX - HEAT INDEX
  VSB - VISIBILITY
$$




USA.gov is the U.S. government's official web portal to all federal, state and local government web resources and services.